This demonstration page uses our WeatherBlox Daily Observations layout. Learn more.

38.89511, -77.03637

Hourly Observations for December 24, 2016

Temp ( °F °C ) Dew Point ( °F °C ) Humidity (%) Winds ( mph kmh ) Pressure ( in mb ) Visibility ( mi km ) Precip ( " mm )
12:52 am 00:52 Cloudy 42 5.6 30 -1.1 62 62 S 9 15 30.35 1028 10 16.0934 0 0.0254
1:52 am 01:52 Cloudy 42 5.6 31 -0.6 65 65 S 10 17 30.32 1027 10 16.0934 0 0
2:52 am 02:52 Cloudy 42 5.6 31 -0.6 65 65 S 7 11 30.35 1028 10 16.0934 0 0
3:52 am 03:52 Cloudy with Light Rain 41 5 34 1.1 76 76 S 10 17 30.29 1026 10 16.0934 0 0.0254
4:52 am 04:52 Cloudy with Light Rain 40 4.4 37 2.8 89 89 S 9 15 30.28 1026 6 9.65604 0.03 0.762
5:02 am 05:02 Cloudy with Light Rain 39 4 37 3 93 93 S 7 11 30.27 1025 6 9.65604 0 0
5:52 am 05:52 Cloudy with Rain 40 4.4 39 3.9 97 97 SSW 8 13 30.28 1025 3 4.82802 0.12 3.048
6:52 am 06:52 Cloudy with Rain 40 4.4 39 3.9 97 97 S 8 13 30.26 1025 3 4.82802 0.15 3.81
7:52 am 07:52 Cloudy with Light Rain 40 4.4 39 3.9 97 97 S 12 19 30.22 1024 3 4.82802 0.09 2.286
8:14 am 08:14 Cloudy with Light Rain 41 5 39 4 93 93 SSW 8 13 30.24 1024 3 4.82802 0 0
8:27 am 08:27 Cloudy with Rain 41 5 40 4.4 96 96 S 8 13 30.21 1023 2.5 4.02335 0.05 1.27
8:39 am 08:39 Cloudy with Light Rain 40 4.4 40 4.4 100 100 S 13 20 30.21 1023 3 4.82802 0.06 1.524
8:42 am 08:42 Cloudy with Light Rain 39 4 39 4 100 100 S 14 22 30.21 1023 3 4.82802 0 0
8:52 am 08:52 Cloudy with Light Rain 41 5 40 4.4 96 96 S 13 20 30.2 1023 3 4.82802 0.08 2.032
9:23 am 09:23 Cloudy with Light Rain 42 5.6 41 5 96 96 SSW 12 19 30.21 1023 4 6.43736 0.03 0.762
9:52 am 09:52 Cloudy with Light Rain 43 6.1 42 5.6 97 97 SSW 13 20 30.19 1023 6 9.65604 0.05 1.27
10:52 am 10:52 Cloudy with Light Rain 44 6.7 43 6.1 96 96 SSW 9 15 30.18 1022 6 9.65604 0.02 0.508
11:52 am 11:52 Cloudy 45 7.2 44 6.7 97 97 SSW 8 13 30.17 1022 10 16.0934 0 0.0254
12:52 pm 12:52 Cloudy 46 7.8 45 7.2 96 96 SSW 7 11 30.14 1021 8 12.87472 0 0
1:52 pm 13:52 Cloudy with Mist and Fog 46 7.8 45 7.2 96 96 SSE 3 6 30.14 1021 6 9.65604 0 0
2:13 pm 14:13 Cloudy 46 7.8 45 7.2 96 96 SSE 5 7 30.15 1021 7 11.26538 0 0
2:49 pm 14:49 Cloudy 46 8 46 8 100 100 Calm 30.18 1022 7 11.26538 0 0
2:52 pm 14:52 Cloudy 47 8.3 46 7.8 97 97 Calm 30.16 1022 7 11.26538 0 0
3:52 pm 15:52 Cloudy 47 8.3 46 7.8 97 97 SSE 3 6 30.18 1022 9 14.48406 0 0
4:52 pm 16:52 Mostly Cloudy 47 8.3 46 7.8 97 97 SSW 3 6 30.21 1023 9 14.48406 0 0
5:31 pm 17:31 Cloudy 47 8.3 46 7.8 97 97 S 5 7 30.21 1023 9 14.48406 0 0
5:52 pm 17:52 Cloudy 47 8.3 46 7.8 97 97 Calm 30.23 1024 9 14.48406 0 0
6:52 pm 18:52 Partly Cloudy 46 7.8 45 7.2 96 96 Calm 30.24 1024 7 11.26538 0 0
7:26 pm 19:26 Clear with Mist and Fog 43 6 43 6 100 100 Calm 30.27 1025 1.25 2.011675 0 0
7:37 pm 19:37 Mostly Clear 42 5.6 42 5.6 100 100 S 3 6 30.27 1025 7 11.26538 0 0
7:52 pm 19:52 Partly Cloudy 42 5.6 42 5.6 100 100 Calm 30.27 1025 7 11.26538 0 0
8:04 pm 20:04 Mostly Clear 39 4 39 4 100 100 Calm 30.27 1025 7 11.26538 0 0
8:24 pm 20:24 Mostly Clear 41 5 41 5 100 100 NNW 6 9 30.27 1025 7 11.26538 0 0
8:52 pm 20:52 Clear 40 4.4 40 4.4 100 100 VRB 3 6 30.28 1025 7 11.26538 0 0
8:57 pm 20:57 Mostly Cloudy with Mist and Fog 37 2.8 37 2.8 100 100 Calm 30.3 1026 0.75 1.207005 0 0
9:21 pm 21:21 Mostly Cloudy with Fog 38 3.3 38 3.3 100 100 S 5 7 30.3 1026 0.25 0.402335 0 0
9:33 pm 21:33 Mostly Cloudy with Fog 40 4.4 40 4.4 100 100 S 5 7 30.3 1026 0.25 0.402335 0 0
9:52 pm 21:52 Mostly Cloudy with Fog 39 3.9 39 3.9 100 100 Calm 30.31 1027 0.25 0.402335 0 0
10:16 pm 22:16 Mostly Cloudy with Fog 37 3 37 3 100 100 S 5 7 30.33 1027 0.25 0.402335 0 0
10:24 pm 22:24 Mostly Cloudy with Fog 39 4 39 4 100 100 SSW 5 7 30.33 1027 0.25 0.402335 0 0
10:33 pm 22:33 Partly Cloudy with Fog 40 4.4 40 4.4 100 100 SSW 3 6 30.33 1027 0.5 0.80467 0 0
10:43 pm 22:43 Partly Cloudy with Mist and Fog 40 4.4 39 3.9 97 97 Calm 30.33 1027 1 1.60934 0 0
10:52 pm 22:52 Mostly Cloudy with Patchy Fog 39 3.9 39 3.9 100 100 N 3 6 30.32 1027 4 6.43736 0 0
11:26 pm 23:26 Mostly Clear with Patchy Fog 36 2 36 2 100 100 N 5 7 30.33 1027 6 9.65604 0 0
11:52 pm 23:52 Mostly Clear with Patchy Fog 36 2.2 36 2.2 100 100 NNW 7 11 30.34 1027 6 9.65604 0 0

Powered by AerisWeather